This is the latest recevied weather packets stored in our database for station/object DB0FN-10. If no packets are shown the sender has not sent any weather packets the latest 10 day(s).
| Time | Temp. | Humidity | Pressure | Rain* | Wind** | Luminosity | Snow |
|---|---|---|---|---|---|---|---|
| 1777323635 | 17.78° C | 31% | 1021 hPa | - | - | - | - |
| 1777322735 | 17.78° C | 30% | 1021.1 hPa | - | - | - | - |
| 1777321835 | 18.33° C | 30% | 1021.1 hPa | - | - | - | - |
| 1777320935 | 18.33° C | 30% | 1021.1 hPa | - | - | - | - |
| 1777320035 | 18.33° C | 30% | 1021.2 hPa | - | - | - | - |
| 1777319135 | 18.89° C | 30% | 1021.3 hPa | - | - | - | - |
| 1777318235 | 18.89° C | 30% | 1021.3 hPa | - | - | - | - |
| 1777317335 | 18.89° C | 30% | 1021.4 hPa | - | - | - | - |
| 1777316435 | 19.44° C | 30% | 1021.4 hPa | - | - | - | - |
| 1777315535 | 20° C | 30% | 1021.2 hPa | - | - | - | - |
| 1777314635 | 20° C | 29% | 1021.2 hPa | - | - | - | - |
| 1777313735 | 20.56° C | 29% | 1021.2 hPa | - | - | - | - |
| 1777312835 | 21.11° C | 28% | 1021.2 hPa | - | - | - | - |
| 1777311934 | 21.11° C | 28% | 1021.2 hPa | - | - | - | - |
| 1777311034 | 21.67° C | 27% | 1021.2 hPa | - | - | - | - |
| 1777310134 | 21.67° C | 27% | 1021.1 hPa | - | - | - | - |
| 1777309234 | 21.67° C | 29% | 1021.3 hPa | - | - | - | - |
| 1777308334 | 21.67° C | 29% | 1021.4 hPa | - | - | - | - |
| 1777307434 | 22.22° C | 28% | 1021.6 hPa | - | - | - | - |
| 1777306534 | 22.22° C | 27% | 1021.5 hPa | - | - | - | - |
| 1777305634 | 22.22° C | 28% | 1021.5 hPa | - | - | - | - |
| 1777304734 | 22.78° C | 29% | 1021.6 hPa | - | - | - | - |
| 1777303834 | 21.67° C | 29% | 1021.6 hPa | - | - | - | - |
| 1777302934 | 23.33° C | 27% | 1021.7 hPa | - | - | - | - |
| 1777302034 | 22.22° C | 27% | 1021.8 hPa | - | - | - | - |
* Rain since midnight (hover to see other rain measurements)
** Current wind speed in m/s (hover to see current wind gust speed)